星链-35060(STARLINK-35060)

导读 | 豆包AI

STARLINK-35060是美国太空探索技术公司(SpaceX)星链计划中的一颗卫星,于2025年9月21日成功发射。作为星链星座组网的组成部分,它旨在为全球范围内用户提供低延迟、高速率的宽带互联网服务,进一步完善星链卫星互联网的全球覆盖布局,推动全球互联网络基础设施的建设。

基本信息
目录编号:
65693
目录名称:
STARLINK-35060
国际标识:
2025-212T
轨道中心:
EARTH
卫星名称:
星链-35060
卫星全名:
星链-35060(STARLINK-35060)
卫星状态:
在轨 (已飞行174 天)
发射日期:
2025-09-21 UTC
国别 :
美国 (US)
星等 :
--
轨道信息
数据来源 国际轨道数据
星历时间: 2026-03-13T09:41:03+0800
1天前
查看轨道信息
半长轴: 6850.834km
偏心率: 0.0001001
轨道倾角: 53.160°
近地点辐角 89.916°
升交点赤经 319.803°
平近点角 270.196°
近地点: 472.011km
远地点: 473.383km
周期: 94.053分钟
每日圈数: 15.310439
详细信息
固有亮度:
5
最大亮度:
2.5
卫星平台:
Starlink V1.0
覆盖范围:
全球
运营商:
太空探索技术公司
运营商所在国:
美国
制造商(研发单位):
太空探索技术公司
制造商所在国:
美国
使用方式:
暂无
卫星简介
Starlink 计划是 SpaceX 推出的全球卫星互联网项目,通过发射低轨道卫星,为全球尤其是偏远地区提供高速、低延迟的互联网服务。自 2019 年起,Starlink 已部署数千颗卫星,旨在缩小全球数字鸿沟,推动互联网普及。该项目还为军事、航空等行业提供通信支持,带来广泛经济效益。
2D轨道图
3D轨道图
轨道高度分析图
轨道倾角分析图
轨道综合分析图
查看轨道综合分析图